Location: Bottenau
(48.5138°N, 8.0462°E)
Time: 20:09:28
(UTC+00:00)

NOSS 0 Rocket - Pass Details

Date: 18 April 2021
Orbit: 934 x 955 km, 70.0° (Epoch: 17 May)

Event Time Altitude Azimuth Distance (km) Brightness Sun altitude
Rises 19:04:44 0° 332° (NNW) 3,624 8.0 -7.1°
Reaches altitude 10° 19:07:24 10° 338° (NNW) 2,679 7.1 -7.5°
Maximum altitude 19:13:23 47° 52° (NE) 1,246 4.4 -8.4°
Enters shadow 19:19:06 11° 124° (SE) 2,588 5.5 -9.3°
